User: anonymous   Login
Location: *
(1.3500°S, 147.5000°W)
Time: 03:42:07
(UTC+00:00)
Language:

Envisat - Orbit

View from above orbital plane
View from above orbital plane
View from above satellite
View from above satellite

Ground track
Ground track

The orbit data is extracted from the following two-line orbital elements,

1 27386U 02009A   21215.56213675  .00000016  00000-0  18863-4 0  9990
2 27386  98.1506 207.2184 0001407  88.6390  20.2849 14.38035802 17846
Epoch (UTC): 03 August 2021 13:29:28
Eccentricity: 0.0001407
inclination: 98.1506°
perigee height: 764 km
apogee height: 766 km
right ascension of ascending node: 207.2184°
argument of perigee: 88.6390°
revolutions per day: 14.38035802
mean anomaly at epoch: 20.2849°
orbit number at epoch: 1784

The dashed part of the orbit path shows where the satellite is in the earth's shadow,  

DLR